| time (UTC) | temp F | wind direction | speed knots | gust knots | rain 1hr in | rain 24hr in | rain mn in | humidity % | barometer mb |
| 20260902084248 | 75 | 209 | 2.6 | 7.0 | 0.00 | 0.00 | 0.00 | 70 | 1013.5 |
| 20260902083729 | 76 | 349 | 2.6 | 9.6 | 0.00 | 0.00 | 0.00 | 70 | 1013.5 |
| 20260902083242 | 76 | 337 | 7.8 | 9.6 | 0.00 | 0.00 | 0.00 | 70 | 1013.7 |
| 20260902083058 | 75 | 355 | 7.0 | 8.7 | 0.00 | 0.00 | 0.00 | 70 | 1010.7 |
| 20260902083007 | 75 | 5 | 7.0 | 8.7 | 0.00 | 0.00 | 0.00 | 70 | 1010.8 |
| 20260902082724 | 76 | 339 | 6.1 | 8.7 | 0.00 | 0.00 | 0.00 | 69 | 1013.6 |
| 20260902082230 | 76 | 201 | 1.7 | 7.0 | 0.00 | 0.00 | 0.00 | 68 | 1013.4 |
| 20260902081740 | 76 | 192 | 3.5 | 7.0 | 0.00 | 0.00 | 0.00 | 68 | 1013.0 |
| 20260902081556 | 76 | 200 | 4.3 | 7.0 | 0.00 | 0.00 | 0.00 | 68 | 1010.1 |
| 20260902081224 | 76 | 169 | 4.3 | 7.8 | 0.00 | 0.00 | 0.00 | 68 | 1012.9 |
| 20260902080736 | 77 | 167 | 5.2 | 7.0 | 0.00 | 0.00 | 0.00 | 68 | 1012.9 |
| 20260902080247 | 77 | 182 | 6.1 | 7.8 | 0.00 | 0.00 | 0.00 | 68 | 1012.8 |
| 20260902080109 | 76 | 174 | 5.2 | 8.7 | 0.00 | 0.00 | 0.00 | 68 | 1010.0 |
| 20260902075729 | 77 | 179 | 5.2 | 8.7 | 0.00 | 0.00 | 0.00 | 68 | 1012.8 |
| 20260902075239 | 77 | 174 | 7.0 | 8.7 | 0.00 | 0.00 | 0.00 | 68 | 1012.7 |
| 20260902074748 | 77 | 164 | 7.0 | 9.6 | 0.00 | 0.00 | 0.00 | 68 | 1012.7 |
| 20260902074545 | 76 | 180 | 6.1 | 9.6 | 0.00 | 0.00 | 0.00 | 68 | 1009.8 |
| 20260902074239 | 77 | 183 | 7.0 | 9.6 | 0.00 | 0.00 | 0.00 | 67 | 1012.7 |
| 20260902073749 | 77 | 158 | 6.1 | 9.6 | 0.00 | 0.00 | 0.00 | 67 | 1012.7 |
| 20260902073231 | 77 | 194 | 6.1 | 9.6 | 0.00 | 0.00 | 0.00 | 67 | 1012.7 |
| 20260902073048 | 77 | 194 | 5.2 | 9.6 | 0.00 | 0.00 | 0.00 | 67 | 1009.8 |
| 20260902072743 | 77 | 150 | 6.1 | 10.4 | 0.00 | 0.00 | 0.00 | 67 | 1012.6 |
| 20260902072236 | 77 | 215 | 7.0 | 10.4 | 0.00 | 0.00 | 0.00 | 67 | 1012.6 |
| 20260902071743 | 77 | 190 | 7.0 | 13.9 | 0.00 | 0.00 | 0.00 | 67 | 1012.6 |
| 20260902071516 | 77 | 167 | 5.2 | 13.9 | 0.00 | 0.00 | 0.00 | 67 | 1009.8 |
| 20260902071228 | 77 | 200 | 6.1 | 13.9 | 0.00 | 0.00 | 0.00 | 67 | 1012.6 |
| 20260902070733 | 77 | 181 | 7.8 | 11.3 | 0.00 | 0.00 | 0.00 | 67 | 1012.6 |
| 20260902070222 | 78 | 177 | 6.1 | 10.4 | 0.00 | 0.00 | 0.00 | 67 | 1012.7 |
| 20260902070057 | 77 | 178 | 6.1 | 10.4 | 0.00 | 0.00 | 0.00 | 67 | 1010.0 |
| 20260902065734 | 78 | 202 | 5.2 | 8.7 | 0.00 | 0.00 | 0.00 | 67 | 1012.7 |
| 20260902065244 | 78 | 198 | 6.1 | 8.7 | 0.00 | 0.00 | 0.00 | 67 | 1012.7 |
| 20260902064726 | 78 | 194 | 5.2 | 12.2 | 0.00 | 0.00 | 0.00 | 67 | 1012.8 |
| 20260902064608 | 77 | 207 | 5.2 | 12.2 | 0.00 | 0.00 | 0.00 | 67 | 1009.9 |
| 20260902064240 | 78 | 199 | 7.0 | 12.2 | 0.00 | 0.00 | 0.00 | 67 | 1012.7 |
| 20260902063749 | 78 | 181 | 7.8 | 12.2 | 0.00 | 0.00 | 0.00 | 66 | 1012.6 |
| 20260902063227 | 78 | 189 | 7.8 | 9.6 | 0.00 | 0.00 | 0.00 | 66 | 1012.6 |
| 20260902063051 | 78 | 184 | 7.0 | 10.4 | 0.00 | 0.00 | 0.00 | 66 | 1009.8 |
| 20260902062739 | 78 | 196 | 7.0 | 12.2 | 0.00 | 0.00 | 0.00 | 66 | 1012.6 |
| 20260902062222 | 78 | 205 | 7.8 | 12.2 | 0.00 | 0.00 | 0.00 | 66 | 1012.5 |
| 20260902061733 | 78 | 173 | 7.0 | 11.3 | 0.00 | 0.00 | 0.00 | 66 | 1012.5 |
| 20260902061502 | 78 | 203 | 6.1 | 11.3 | 0.00 | 0.00 | 0.00 | 66 | 1009.7 |
| 20260902061247 | 79 | 164 | 7.0 | 11.3 | 0.00 | 0.00 | 0.00 | 66 | 1012.5 |
| 20260902060730 | 79 | 169 | 7.0 | 12.2 | 0.00 | 0.00 | 0.00 | 66 | 1012.5 |
| 20260902060241 | 79 | 168 | 6.1 | 9.6 | 0.00 | 0.00 | 0.00 | 66 | 1012.3 |
| 20260902060110 | 78 | 159 | 5.2 | 8.7 | 0.00 | 0.00 | 0.00 | 66 | 1009.6 |
| 20260902060000 | 78 | 184 | 6.1 | 8.7 | 0.00 | 0.00 | 0.00 | 66 | 1009.6 |
| 20260902055754 | 79 | 159 | 7.0 | 10.4 | 0.00 | 0.00 | 0.00 | 66 | 1012.3 |
| 20260902055302 | 79 | 182 | 7.0 | 9.6 | 0.00 | 0.00 | 0.00 | 65 | 1012.3 |
| 20260902054722 | 79 | 175 | 7.0 | 9.6 | 0.00 | 0.00 | 0.00 | 66 | 1012.3 |
| 20260902054521 | 79 | 176 | 7.0 | 11.3 | 0.00 | 0.00 | 0.00 | 65 | 1009.6 |
| 20260902054235 | 79 | 184 | 7.0 | 11.3 | 0.00 | 0.00 | 0.00 | 65 | 1012.3 |
| 20260902053744 | 79 | 162 | 7.8 | 10.4 | 0.00 | 0.00 | 0.00 | 65 | 1012.4 |
| 20260902053224 | 80 | 182 | 7.0 | 10.4 | 0.00 | 0.00 | 0.00 | 65 | 1012.4 |
| 20260902053013 | 79 | 163 | 6.1 | 10.4 | 0.00 | 0.00 | 0.00 | 65 | 1009.6 |
| 20260902052754 | 80 | 191 | 7.0 | 8.7 | 0.00 | 0.00 | 0.00 | 65 | 1012.5 |
| 20260902052239 | 80 | 161 | 7.0 | 9.6 | 0.00 | 0.00 | 0.00 | 65 | 1012.5 |
| 20260902051722 | 80 | 150 | 6.1 | 8.7 | 0.00 | 0.00 | 0.00 | 65 | 1012.6 |
| 20260902051552 | 79 | 177 | 6.1 | 8.7 | 0.00 | 0.00 | 0.00 | 65 | 1009.8 |
| 20260902051234 | 80 | 183 | 6.1 | 8.7 | 0.00 | 0.00 | 0.00 | 65 | 1012.6 |
| 20260902050743 | 80 | 174 | 7.0 | 8.7 | 0.00 | 0.00 | 0.00 | 65 | 1012.6 |
| 20260902050226 | 80 | 164 | 6.1 | 9.6 | 0.00 | 0.00 | 0.00 | 65 | 1012.6 |
| 20260902050045 | 80 | 172 | 5.2 | 9.6 | 0.00 | 0.00 | 0.00 | 65 | 1009.8 |
| 20260902045738 | 80 | 166 | 6.1 | 9.6 | 0.00 | 0.00 | 0.00 | 65 | 1012.5 |
| 20260902045248 | 81 | 170 | 7.0 | 9.6 | 0.00 | 0.00 | 0.00 | 65 | 1012.5 |
| 20260902044738 | 81 | 182 | 6.1 | 9.6 | 0.00 | 0.00 | 0.00 | 65 | 1012.6 |
| 20260902044531 | 80 | 165 | 6.1 | 9.6 | 0.00 | 0.00 | 0.00 | 65 | 1009.8 |
| 20260902044246 | 81 | 183 | 7.0 | 9.6 | 0.00 | 0.00 | 0.00 | 65 | 1012.6 |
| 20260902043725 | 81 | 157 | 6.1 | 9.6 | 0.00 | 0.00 | 0.00 | 65 | 1012.7 |
| 20260902043240 | 81 | 184 | 7.0 | 10.4 | 0.00 | 0.00 | 0.00 | 65 | 1012.6 |
| 20260902043034 | 81 | 161 | 6.1 | 9.6 | 0.00 | 0.00 | 0.00 | 65 | 1009.8 |
| 20260902042722 | 81 | 146 | 6.1 | 9.6 | 0.00 | 0.00 | 0.00 | 65 | 1012.6 |
| 20260902042235 | 81 | 181 | 7.0 | 8.7 | 0.00 | 0.00 | 0.00 | 65 | 1012.6 |
| 20260902041746 | 82 | 163 | 6.1 | 8.7 | 0.00 | 0.00 | 0.00 | 65 | 1012.6 |
| 20260902041530 | 81 | 173 | 5.2 | 9.6 | 0.00 | 0.00 | 0.00 | 65 | 1009.7 |
| 20260902041230 | 82 | 185 | 5.2 | 9.6 | 0.00 | 0.00 | 0.00 | 65 | 1012.6 |
| 20260902040736 | 82 | 172 | 7.0 | 9.6 | 0.00 | 0.00 | 0.00 | 65 | 1012.7 |
| 20260902040248 | 82 | 172 | 6.1 | 7.8 | 0.00 | 0.00 | 0.00 | 65 | 1012.6 |
| 20260902040048 | 81 | 146 | 6.1 | 8.7 | 0.00 | 0.00 | 0.00 | 65 | 1009.9 |
| 20260902035738 | 82 | 173 | 5.2 | 9.6 | 0.00 | 0.00 | 0.00 | 65 | 1012.7 |
| 20260902035227 | 82 | 165 | 6.1 | 9.6 | 0.00 | 0.00 | 0.00 | 65 | 1012.7 |
| 20260902034739 | 82 | 167 | 6.1 | 7.8 | 0.00 | 0.00 | 0.00 | 65 | 1012.7 |
| 20260902034542 | 82 | 166 | 6.1 | 8.7 | 0.00 | 0.00 | 0.00 | 65 | 1009.8 |
| 20260902034223 | 82 | 173 | 5.2 | 7.8 | 0.00 | 0.00 | 0.00 | 65 | 1012.6 |
| 20260902033753 | 82 | 182 | 6.1 | 7.8 | 0.00 | 0.00 | 0.00 | 65 | 1012.6 |
| 20260902033240 | 83 | 163 | 6.1 | 9.6 | 0.00 | 0.00 | 0.00 | 65 | 1012.6 |
| 20260902033033 | 82 | 186 | 6.1 | 9.6 | 0.00 | 0.00 | 0.00 | 65 | 1009.8 |
| 20260902032722 | 83 | 172 | 6.1 | 9.6 | 0.00 | 0.00 | 0.00 | 65 | 1012.5 |
| 20260902032254 | 83 | 163 | 6.1 | 8.7 | 0.00 | 0.00 | 0.00 | 65 | 1012.5 |
| 20260902031742 | 83 | 161 | 7.0 | 8.7 | 0.00 | 0.00 | 0.00 | 65 | 1012.5 |
| 20260902031557 | 83 | 160 | 5.2 | 8.7 | 0.00 | 0.00 | 0.00 | 65 | 1009.6 |
| 20260902031226 | 83 | 171 | 6.1 | 8.7 | 0.00 | 0.00 | 0.00 | 65 | 1012.5 |
| 20260902030756 | 83 | 169 | 5.2 | 8.7 | 0.00 | 0.00 | 0.00 | 65 | 1012.5 |
| 20260902030242 | 83 | 155 | 6.1 | 9.6 | 0.00 | 0.00 | 0.00 | 65 | 1012.5 |
| 20260902030034 | 83 | 162 | 6.1 | 9.6 | 0.00 | 0.00 | 0.00 | 65 | 1009.6 |
| 20260902025725 | 83 | 160 | 6.1 | 9.6 | 0.00 | 0.00 | 0.00 | 65 | 1012.5 |
| 20260902025237 | 84 | 174 | 6.1 | 8.7 | 0.00 | 0.00 | 0.00 | 65 | 1012.3 |
| 20260902024722 | 84 | 140 | 7.0 | 8.7 | 0.00 | 0.00 | 0.00 | 65 | 1012.3 |
| 20260902024545 | 83 | 166 | 6.1 | 9.6 | 0.00 | 0.00 | 0.00 | 65 | 1009.4 |
| 20260902024233 | 84 | 172 | 6.1 | 9.6 | 0.00 | 0.00 | 0.00 | 65 | 1012.3 |
| 20260902023743 | 84 | 144 | 6.1 | 8.7 | 0.00 | 0.00 | 0.00 | 64 | 1012.2 |
| 20260902023225 | 84 | 175 | 6.1 | 8.7 | 0.00 | 0.00 | 0.00 | 64 | 1012.2 |
| 20260902023048 | 84 | 163 | 5.2 | 7.8 | 0.00 | 0.00 | 0.00 | 64 | 1009.2 |
| 20260902022736 | 84 | 169 | 5.2 | 8.7 | 0.00 | 0.00 | 0.00 | 64 | 1012.1 |
| 20260902022243 | 85 | 167 | 5.2 | 9.6 | 0.00 | 0.00 | 0.00 | 64 | 1012.0 |
| 20260902021725 | 85 | 176 | 6.1 | 9.6 | 0.00 | 0.00 | 0.00 | 63 | 1011.9 |
| 20260902021613 | 84 | 171 | 5.2 | 8.7 | 0.00 | 0.00 | 0.00 | 63 | 1008.9 |
| 20260902021237 | 85 | 163 | 6.1 | 8.7 | 0.00 | 0.00 | 0.00 | 63 | 1011.8 |
| 20260902020747 | 85 | 165 | 5.2 | 7.8 | 0.00 | 0.00 | 0.00 | 62 | 1011.8 |
| 20260902020230 | 86 | 164 | 5.2 | 7.8 | 0.00 | 0.00 | 0.00 | 62 | 1011.8 |
| 20260902020056 | 85 | 167 | 4.3 | 7.8 | 0.00 | 0.00 | 0.00 | 62 | 1008.8 |
| 20260902015741 | 86 | 146 | 5.2 | 7.0 | 0.00 | 0.00 | 0.00 | 61 | 1011.7 |
| 20260902015222 | 86 | 173 | 5.2 | 7.0 | 0.00 | 0.00 | 0.00 | 61 | 1011.6 |
| 20260902014733 | 87 | 152 | 4.3 | 7.8 | 0.00 | 0.00 | 0.00 | 60 | 1011.5 |
| 20260902014558 | 86 | 156 | 3.5 | 7.8 | 0.00 | 0.00 | 0.00 | 60 | 1008.6 |
| 20260902014242 | 87 | 171 | 5.2 | 7.8 | 0.00 | 0.00 | 0.00 | 60 | 1011.5 |
| 20260902013723 | 87 | 140 | 4.3 | 8.7 | 0.00 | 0.00 | 0.00 | 59 | 1011.3 |
| 20260902013236 | 88 | 180 | 6.1 | 9.6 | 0.00 | 0.00 | 0.00 | 59 | 1011.3 |
| 20260902013104 | 87 | 165 | 6.1 | 8.7 | 0.00 | 0.00 | 0.00 | 59 | 1008.3 |
| 20260902012746 | 88 | 173 | 5.2 | 8.7 | 0.00 | 0.00 | 0.00 | 59 | 1011.3 |
| 20260902012229 | 88 | 165 | 5.2 | 8.7 | 0.00 | 0.00 | 0.00 | 58 | 1011.2 |
| 20260902011739 | 89 | 163 | 5.2 | 7.8 | 0.00 | 0.00 | 0.00 | 58 | 1011.3 |
| 20260902011600 | 88 | 161 | 4.3 | 7.8 | 0.00 | 0.00 | 0.00 | 58 | 1008.2 |
| 20260902011251 | 89 | 170 | 5.2 | 7.8 | 0.00 | 0.00 | 0.00 | 58 | 1011.2 |
| 20260902010743 | 90 | 161 | 5.2 | 7.0 | 0.00 | 0.00 | 0.00 | 57 | 1011.2 |
| 20260902010222 | 90 | 165 | 5.2 | 7.8 | 0.00 | 0.00 | 0.00 | 56 | 1011.2 |
| 20260902010036 | 90 | 163 | 4.3 | 7.8 | 0.00 | 0.00 | 0.00 | 56 | 1008.2 |
| 20260902005734 | 91 | 149 | 5.2 | 7.8 | 0.00 | 0.00 | 0.00 | 56 | 1011.2 |
| 20260902005244 | 91 | 178 | 6.1 | 7.8 | 0.00 | 0.00 | 0.00 | 55 | 1011.2 |
| 20260902004729 | 91 | 158 | 5.2 | 8.7 | 0.00 | 0.00 | 0.00 | 55 | 1011.2 |
| 20260902004538 | 91 | 180 | 5.2 | 7.8 | 0.00 | 0.00 | 0.00 | 54 | 1008.3 |
| 20260902004243 | 92 | 156 | 6.1 | 8.7 | 0.00 | 0.00 | 0.00 | 54 | 1011.3 |
| 20260902003725 | 93 | 162 | 6.1 | 8.7 | 0.00 | 0.00 | 0.00 | 53 | 1011.2 |
| 20260902003237 | 93 | 163 | 6.1 | 7.8 | 0.00 | 0.00 | 0.00 | 52 | 1011.3 |
| 20260902003044 | 93 | 180 | 5.2 | 7.8 | 0.00 | 0.00 | 0.00 | 52 | 1008.3 |
| 20260902002749 | 94 | 143 | 6.1 | 7.8 | 0.00 | 0.00 | 0.00 | 52 | 1011.2 |
| 20260902002235 | 94 | 156 | 5.2 | 7.8 | 0.00 | 0.00 | 0.00 | 51 | 1011.2 |
| 20260902001746 | 95 | 166 | 4.3 | 6.1 | 0.00 | 0.00 | 0.00 | 51 | 1011.2 |
| 20260902001504 | 95 | 167 | 4.3 | 7.8 | 0.00 | 0.00 | 0.00 | 51 | 1008.3 |
| 20260902001237 | 95 | 157 | 5.2 | 7.8 | 0.00 | 0.00 | 0.00 | 51 | 1011.3 |
| 20260902000747 | 96 | 174 | 5.2 | 9.6 | 0.00 | 0.00 | 0.00 | 50 | 1011.3 |
| 20260902000241 | 96 | 146 | 5.2 | 9.6 | 0.00 | 0.00 | 0.00 | 50 | 1011.5 |
| 20260902000044 | 95 | 178 | 6.1 | 9.6 | 0.00 | 0.00 | 0.00 | 50 | 1008.5 |
| 20260901235722 | 96 | 163 | 5.2 | 7.8 | 0.00 | 0.00 | 0.00 | 49 | 1011.5 |
| 20260901235236 | 97 | 163 | 6.1 | 8.7 | 0.00 | 0.00 | 0.00 | 49 | 1011.5 |
| 20260901234742 | 97 | 166 | 7.0 | 8.7 | 0.00 | 0.00 | 0.00 | 49 | 1011.6 |
| 20260901234554 | 97 | 191 | 5.2 | 10.4 | 0.00 | 0.00 | 0.00 | 49 | 1008.6 |
| 20260901234228 | 97 | 192 | 5.2 | 7.8 | 0.00 | 0.00 | 0.00 | 49 | 1011.6 |
| 20260901233738 | 97 | 182 | 5.2 | 7.0 | 0.00 | 0.00 | 0.00 | 49 | 1011.6 |
| 20260901233250 | 97 | 188 | 4.3 | 7.0 | 0.00 | 0.00 | 0.00 | 48 | 1011.7 |
| 20260901233053 | 97 | 178 | 3.5 | 7.0 | 0.00 | 0.00 | 0.00 | 49 | 1008.7 |
| 20260901232735 | 98 | 190 | 4.3 | 7.8 | 0.00 | 0.00 | 0.00 | 48 | 1011.6 |
| 20260901232248 | 98 | 198 | 5.2 | 9.6 | 0.00 | 0.00 | 0.00 | 47 | 1011.7 |
| 20260901231739 | 98 | 183 | 4.3 | 9.6 | 0.00 | 0.00 | 0.00 | 47 | 1011.7 |
| 20260901231530 | 97 | 165 | 5.2 | 9.6 | 0.00 | 0.00 | 0.00 | 48 | 1008.8 |
| 20260901231224 | 98 | 155 | 4.3 | 9.6 | 0.00 | 0.00 | 0.00 | 48 | 1011.7 |
| 20260901230749 | 98 | 186 | 6.1 | 8.7 | 0.00 | 0.00 | 0.00 | 47 | 1011.7 |
| 20260901230232 | 98 | 184 | 5.2 | 8.7 | 0.00 | 0.00 | 0.00 | 47 | 1011.7 |
| 20260901230032 | 98 | 188 | 6.1 | 10.4 | 0.00 | 0.00 | 0.00 | 47 | 1008.8 |
| 20260901225744 | 98 | 200 | 5.2 | 9.6 | 0.00 | 0.00 | 0.00 | 47 | 1011.8 |
| 20260901225228 | 98 | 199 | 5.2 | 8.7 | 0.00 | 0.00 | 0.00 | 48 | 1011.8 |
| 20260901224758 | 98 | 211 | 6.1 | 8.7 | 0.00 | 0.00 | 0.00 | 48 | 1011.9 |
| 20260901224528 | 97 | 186 | 5.2 | 8.7 | 0.00 | 0.00 | 0.00 | 48 | 1009.0 |
| 20260901224250 | 98 | 197 | 5.2 | 11.3 | 0.00 | 0.00 | 0.00 | 49 | 1011.9 |
| 20260901223732 | 98 | 201 | 6.1 | 11.3 | 0.00 | 0.00 | 0.00 | 47 | 1011.9 |
| 20260901223240 | 98 | 219 | 6.1 | 10.4 | 0.00 | 0.00 | 0.00 | 48 | 1011.8 |
| 20260901223011 | 97 | 179 | 5.2 | 10.4 | 0.00 | 0.00 | 0.00 | 47 | 1008.9 |
| 20260901222723 | 97 | 183 | 7.0 | 10.4 | 0.00 | 0.00 | 0.00 | 47 | 1011.8 |
| 20260901222235 | 97 | 180 | 7.0 | 13.0 | 0.00 | 0.00 | 0.00 | 47 | 1011.8 |
| 20260901221746 | 98 | 179 | 8.7 | 13.0 | 0.00 | 0.00 | 0.00 | 47 | 1011.8 |
| 20260901221513 | 97 | 211 | 7.0 | 14.8 | 0.00 | 0.00 | 0.00 | 47 | 1008.9 |
| 20260901221229 | 98 | 205 | 6.1 | 14.8 | 0.00 | 0.00 | 0.00 | 47 | 1011.9 |
| 20260901220740 | 98 | 166 | 7.0 | 12.2 | 0.00 | 0.00 | 0.00 | 47 | 1012.0 |
| 20260901220223 | 98 | 201 | 7.0 | 16.5 | 0.00 | 0.00 | 0.00 | 46 | 1012.0 |
| 20260901220009 | 98 | 191 | 7.8 | 16.5 | 0.00 | 0.00 | 0.00 | 45 | 1009.0 |
| 20260901215735 | 98 | 207 | 7.8 | 16.5 | 0.00 | 0.00 | 0.00 | 46 | 1012.1 |
| 20260901215306 | 98 | 200 | 7.8 | 16.5 | 0.00 | 0.00 | 0.00 | 45 | 1012.1 |
| 20260901214724 | 98 | 157 | 7.8 | 14.8 | 0.00 | 0.00 | 0.00 | 46 | 1012.1 |
| 20260901214554 | 98 | 178 | 7.8 | 14.8 | 0.00 | 0.00 | 0.00 | 46 | 1009.2 |
| 20260901214238 | 98 | 223 | 7.8 | 14.8 | 0.00 | 0.00 | 0.00 | 48 | 1012.1 |
| 20260901213749 | 98 | 188 | 8.7 | 14.8 | 0.00 | 0.00 | 0.00 | 47 | 1012.1 |
| 20260901213231 | 98 | 213 | 9.6 | 14.8 | 0.00 | 0.00 | 0.00 | 46 | 1012.2 |
| 20260901213055 | 97 | 196 | 8.7 | 14.8 | 0.00 | 0.00 | 0.00 | 48 | 1009.3 |
| 20260901212742 | 98 | 180 | 9.6 | 15.6 | 0.00 | 0.00 | 0.00 | 47 | 1012.1 |
| 20260901212224 | 98 | 191 | 11.3 | 17.4 | 0.00 | 0.00 | 0.00 | 46 | 1012.2 |
| 20260901211731 | 98 | 183 | 11.3 | 17.4 | 0.00 | 0.00 | 0.00 | 47 | 1012.2 |
| 20260901211555 | 98 | 211 | 7.0 | 13.0 | 0.00 | 0.00 | 0.00 | 47 | 1009.3 |
| 20260901211303 | 98 | 190 | 8.7 | 14.8 | 0.00 | 0.00 | 0.00 | 47 | 1012.3 |
| 20260901210723 | 99 | 221 | 9.6 | 14.8 | 0.00 | 0.00 | 0.00 | 47 | 1012.4 |
| 20260901210234 | 99 | 217 | 6.1 | 10.4 | 0.00 | 0.00 | 0.00 | 49 | 1012.4 |
| 20260901210033 | 98 | 180 | 7.0 | 10.4 | 0.00 | 0.00 | 0.00 | 49 | 1009.6 |
| 20260901205745 | 99 | 148 | 7.0 | 12.2 | 0.00 | 0.00 | 0.00 | 49 | 1012.4 |
| 20260901205235 | 99 | 176 | 7.0 | 14.8 | 0.00 | 0.00 | 0.00 | 49 | 1012.4 |
| 20260901204804 | 99 | 196 | 8.7 | 14.8 | 0.00 | 0.00 | 0.00 | 48 | 1012.4 |
| 20260901204541 | 99 | 211 | 8.7 | 13.0 | 0.00 | 0.00 | 0.00 | 46 | 1009.6 |
| 20260901204227 | 100 | 196 | 8.7 | 13.9 | 0.00 | 0.00 | 0.00 | 48 | 1012.6 |
| 20260901203737 | 100 | 169 | 7.8 | 13.9 | 0.00 | 0.00 | 0.00 | 47 | 1012.6 |
| 20260901203221 | 99 | 181 | 7.0 | 11.3 | 0.00 | 0.00 | 0.00 | 49 | 1012.7 |
| 20260901203040 | 98 | 178 | 6.1 | 11.3 | 0.00 | 0.00 | 0.00 | 50 | 1009.9 |
| 20260901202732 | 99 | 170 | 7.0 | 13.9 | 0.00 | 0.00 | 0.00 | 49 | 1012.9 |
| 20260901202246 | 99 | 165 | 7.8 | 13.9 | 0.00 | 0.00 | 0.00 | 48 | 1012.9 |
| 20260901201729 | 99 | 189 | 7.0 | 10.4 | 0.00 | 0.00 | 0.00 | 49 | 1012.9 |
| 20260901201533 | 98 | 188 | 6.1 | 15.6 | 0.00 | 0.00 | 0.00 | 48 | 1010.1 |
| 20260901201303 | 99 | 200 | 7.8 | 15.6 | 0.00 | 0.00 | 0.00 | 48 | 1013.0 |
| 20260901200749 | 99 | 197 | 9.6 | 15.6 | 0.00 | 0.00 | 0.00 | 48 | 1012.9 |
| 20260901200240 | 100 | 201 | 6.1 | 12.2 | 0.00 | 0.00 | 0.00 | 48 | 1013.1 |
| 20260901200106 | 99 | 198 | 7.8 | 13.9 | 0.00 | 0.00 | 0.00 | 47 | 1010.3 |
| 20260901195723 | 100 | 174 | 8.7 | 13.9 | 0.00 | 0.00 | 0.00 | 47 | 1013.1 |
| 20260901195253 | 99 | 176 | 9.6 | 13.9 | 0.00 | 0.00 | 0.00 | 48 | 1013.2 |
| 20260901194743 | 100 | 213 | 7.8 | 13.0 | 0.00 | 0.00 | 0.00 | 46 | 1013.2 |
| 20260901194528 | 99 | 182 | 8.7 | 13.0 | 0.00 | 0.00 | 0.00 | 47 | 1010.4 |
| 20260901194228 | 99 | 170 | 7.0 | 12.2 | 0.00 | 0.00 | 0.00 | 47 | 1013.2 |
| 20260901193737 | 99 | 171 | 5.2 | 10.4 | 0.00 | 0.00 | 0.00 | 48 | 1013.3 |
| 20260901193246 | 99 | 174 | 8.7 | 13.0 | 0.00 | 0.00 | 0.00 | 47 | 1013.3 |
| 20260901193029 | 99 | 171 | 7.0 | 13.0 | 0.00 | 0.00 | 0.00 | 48 | 1010.5 |
| 20260901192729 | 99 | 144 | 7.8 | 13.0 | 0.00 | 0.00 | 0.00 | 47 | 1013.3 |
| 20260901192241 | 99 | 155 | 6.1 | 11.3 | 0.00 | 0.00 | 0.00 | 49 | 1013.5 |
| 20260901191726 | 99 | 169 | 7.8 | 11.3 | 0.00 | 0.00 | 0.00 | 48 | 1013.5 |
| 20260901191539 | 98 | 178 | 5.2 | 11.3 | 0.00 | 0.00 | 0.00 | 48 | 1010.8 |
| 20260901191239 | 98 | 192 | 6.1 | 11.3 | 0.00 | 0.00 | 0.00 | 47 | 1013.7 |
| 20260901190751 | 98 | 148 | 5.2 | 13.0 | 0.00 | 0.00 | 0.00 | 48 | 1013.6 |
| 20260901190221 | 98 | 175 | 7.0 | 13.0 | 0.00 | 0.00 | 0.00 | 48 | 1013.6 |
| 20260901190059 | 97 | 166 | 6.1 | 13.0 | 0.00 | 0.00 | 0.00 | 48 | 1010.8 |
| 20260901185728 | 98 | 178 | 7.8 | 13.0 | 0.00 | 0.00 | 0.00 | 46 | 1013.5 |
| 20260901185240 | 98 | 188 | 9.6 | 12.2 | 0.00 | 0.00 | 0.00 | 46 | 1013.4 |
| 20260901184724 | 98 | 132 | 8.7 | 12.2 | 0.00 | 0.00 | 0.00 | 46 | 1013.4 |
| 20260901184503 | 97 | 151 | 7.8 | 12.2 | 0.00 | 0.00 | 0.00 | 48 | 1010.8 |
| 20260901184236 | 98 | 169 | 7.0 | 13.9 | 0.00 | 0.00 | 0.00 | 48 | 1013.6 |
| 20260901183748 | 98 | 202 | 7.8 | 13.0 | 0.00 | 0.00 | 0.00 | 48 | 1013.6 |
| 20260901183231 | 98 | 174 | 8.7 | 12.2 | 0.00 | 0.00 | 0.00 | 47 | 1013.7 |
| 20260901183005 | 97 | 186 | 7.0 | 12.2 | 0.00 | 0.00 | 0.00 | 46 | 1010.9 |
| 20260901182743 | 98 | 183 | 7.8 | 13.0 | 0.00 | 0.00 | 0.00 | 47 | 1013.7 |
| 20260901182228 | 98 | 161 | 5.2 | 13.0 | 0.00 | 0.00 | 0.00 | 47 | 1013.8 |
| 20260901181736 | 97 | 160 | 5.2 | 9.6 | 0.00 | 0.00 | 0.00 | 47 | 1013.9 |
| 20260901181502 | 97 | 202 | 6.1 | 9.6 | 0.00 | 0.00 | 0.00 | 46 | 1011.1 |
| 20260901181249 | 97 | 163 | 7.0 | 9.6 | 0.00 | 0.00 | 0.00 | 48 | 1014.0 |
| 20260901180740 | 98 | 194 | 4.3 | 9.6 | 0.00 | 0.00 | 0.00 | 47 | 1014.0 |
| 20260901180223 | 97 | 161 | 4.3 | 10.4 | 0.00 | 0.00 | 0.00 | 47 | 1014.1 |
| 20260901180041 | 97 | 204 | 6.1 | 10.4 | 0.00 | 0.00 | 0.00 | 48 | 1011.3 |
| 20260901175734 | 97 | 198 | 5.2 | 10.4 | 0.00 | 0.00 | 0.00 | 48 | 1014.2 |
| 20260901175306 | 97 | 163 | 4.3 | 7.8 | 0.00 | 0.00 | 0.00 | 50 | 1014.2 |
| 20260901174727 | 96 | 156 | 7.0 | 8.7 | 0.00 | 0.00 | 0.00 | 47 | 1014.2 |
| 20260901174535 | 96 | 207 | 5.2 | 7.8 | 0.00 | 0.00 | 0.00 | 50 | 1011.4 |
| 20260901174237 | 96 | 159 | 4.3 | 9.6 | 0.00 | 0.00 | 0.00 | 49 | 1014.2 |
| 20260901173806 | 96 | 161 | 5.2 | 8.7 | 0.00 | 0.00 | 0.00 | 51 | 1014.2 |
| 20260901173229 | 95 | 207 | 3.5 | 7.8 | 0.00 | 0.00 | 0.00 | 52 | 1014.3 |
| 20260901173101 | 95 | 200 | 3.5 | 8.7 | 0.00 | 0.00 | 0.00 | 52 | 1011.5 |
| 20260901172739 | 95 | 227 | 3.5 | 7.0 | 0.00 | 0.00 | 0.00 | 52 | 1014.3 |
| 20260901172223 | 94 | 171 | 4.3 | 12.2 | 0.00 | 0.00 | 0.00 | 52 | 1014.4 |
| 20260901171735 | 94 | 185 | 6.1 | 12.2 | 0.00 | 0.00 | 0.00 | 50 | 1014.4 |
| 20260901171605 | 94 | 198 | 6.1 | 12.2 | 0.00 | 0.00 | 0.00 | 51 | 1011.7 |
| 20260901171248 | 94 | 190 | 4.3 | 9.6 | 0.00 | 0.00 | 0.00 | 52 | 1014.4 |
| 20260901170732 | 93 | 207 | 5.2 | 10.4 | 0.00 | 0.00 | 0.00 | 52 | 1014.4 |
| 20260901170236 | 93 | 209 | 5.2 | 10.4 | 0.00 | 0.00 | 0.00 | 52 | 1014.4 |
| 20260901170055 | 93 | 199 | 7.0 | 10.4 | 0.00 | 0.00 | 0.00 | 52 | 1011.7 |
| 20260901165749 | 93 | 163 | 3.5 | 10.4 | 0.00 | 0.00 | 0.00 | 52 | 1014.4 |
| 20260901165233 | 93 | 168 | 6.1 | 10.4 | 0.00 | 0.00 | 0.00 | 50 | 1014.5 |
| 20260901164736 | 93 | 192 | 5.2 | 8.7 | 0.00 | 0.00 | 0.00 | 53 | 1014.5 |
| 20260901164559 | 92 | 206 | 5.2 | 8.7 | 0.00 | 0.00 | 0.00 | 52 | 1011.8 |
| 20260901164248 | 92 | 196 | 4.3 | 8.7 | 0.00 | 0.00 | 0.00 | 52 | 1014.6 |
| 20260901163737 | 92 | 170 | 6.1 | 13.0 | 0.00 | 0.00 | 0.00 | 53 | 1014.6 |
| 20260901163221 | 92 | 144 | 7.8 | 13.0 | 0.00 | 0.00 | 0.00 | 54 | 1014.6 |
| 20260901163040 | 91 | 157 | 6.1 | 10.4 | 0.00 | 0.00 | 0.00 | 54 | 1012.0 |
| 20260901162729 | 92 | 150 | 7.0 | 10.4 | 0.00 | 0.00 | 0.00 | 53 | 1014.7 |
| 20260901162239 | 91 | 171 | 6.1 | 8.7 | 0.00 | 0.00 | 0.00 | 56 | 1014.7 |
| 20260901161722 | 91 | 198 | 3.5 | 7.0 | 0.00 | 0.00 | 0.00 | 54 | 1014.8 |
| 20260901161543 | 90 | 202 | 3.5 | 7.0 | 0.00 | 0.00 | 0.00 | 56 | 1012.1 |
| 20260901161234 | 91 | 200 | 4.3 | 7.0 | 0.00 | 0.00 | 0.00 | 57 | 1014.8 |
| 20260901160745 | 90 | 194 | 4.3 | 8.7 | 0.00 | 0.00 | 0.00 | 56 | 1014.8 |
| 20260901160237 | 90 | 182 | 5.2 | 8.7 | 0.00 | 0.00 | 0.00 | 60 | 1014.8 |
| 20260901160021 | 89 | 174 | 5.2 | 7.0 | 0.00 | 0.00 | 0.00 | 59 | 1012.1 |
| 20260901155749 | 89 | 144 | 3.5 | 6.1 | 0.00 | 0.00 | 0.00 | 60 | 1014.7 |
| 20260901155237 | 88 | 205 | 4.3 | 7.0 | 0.00 | 0.00 | 0.00 | 59 | 1014.5 |
| 20260901154724 | 88 | 213 | 4.3 | 7.0 | 0.00 | 0.00 | 0.00 | 58 | 1014.5 |
| 20260901154504 | 88 | 209 | 4.3 | 7.0 | 0.00 | 0.00 | 0.00 | 57 | 1011.8 |
| 20260901154238 | 89 | 175 | 4.3 | 7.0 | 0.00 | 0.00 | 0.00 | 58 | 1014.5 |
| 20260901153721 | 88 | 190 | 4.3 | 7.0 | 0.00 | 0.00 | 0.00 | 59 | 1014.7 |
| 20260901153231 | 88 | 160 | 4.3 | 7.0 | 0.00 | 0.00 | 0.00 | 58 | 1014.5 |
| 20260901153008 | 88 | 171 | 3.5 | 6.1 | 0.00 | 0.00 | 0.00 | 61 | 1011.9 |
| 20260901152742 | 88 | 172 | 3.5 | 5.2 | 0.00 | 0.00 | 0.00 | 61 | 1014.5 |
| 20260901152225 | 87 | 202 | 3.5 | 4.3 | 0.00 | 0.00 | 0.00 | 59 | 1014.4 |
| 20260901151738 | 87 | 202 | 2.6 | 4.3 | 0.00 | 0.00 | 0.00 | 61 | 1014.5 |
| 20260901151509 | 86 | 159 | 1.7 | 4.3 | 0.00 | 0.00 | 0.00 | 61 | 1011.8 |
| 20260901151248 | 86 | 224 | 2.6 | 4.3 | 0.00 | 0.00 | 0.00 | 60 | 1014.5 |
| 20260901150738 | 86 | 213 | 1.7 | 5.2 | 0.00 | 0.00 | 0.00 | 62 | 1014.5 |
| 20260901150222 | 86 | 213 | 3.5 | 6.1 | 0.00 | 0.00 | 0.00 | 61 | 1014.5 |
| 20260901150055 | 86 | 213 | 3.5 | 6.1 | 0.00 | 0.00 | 0.00 | 60 | 1011.8 |
| 20260901145736 | 86 | 135 | 4.3 | 7.0 | 0.00 | 0.00 | 0.00 | 60 | 1014.5 |
| 20260901145246 | 86 | 194 | 2.6 | 7.0 | 0.00 | 0.00 | 0.00 | 61 | 1014.5 |
| 20260901144730 | 86 | 194 | 2.6 | 6.1 | 0.00 | 0.00 | 0.00 | 62 | 1014.6 |
| 20260901144530 | 85 | 194 | 3.5 | 6.1 | 0.00 | 0.00 | 0.00 | 60 | 1012.0 |
| 20260901144243 | 85 | 170 | 4.3 | 6.1 | 0.00 | 0.00 | 0.00 | 63 | 1014.6 |
| 20260901143725 | 85 | 196 | 3.5 | 6.1 | 0.00 | 0.00 | 0.00 | 63 | 1014.5 |
| 20260901143234 | 84 | 199 | 3.5 | 7.8 | 0.00 | 0.00 | 0.00 | 63 | 1014.5 |
| 20260901143034 | 84 | 203 | 3.5 | 7.8 | 0.00 | 0.00 | 0.00 | 62 | 1012.0 |
| 20260901142749 | 84 | 181 | 4.3 | 7.8 | 0.00 | 0.00 | 0.00 | 65 | 1014.7 |
| 20260901142230 | 84 | 207 | 4.3 | 6.1 | 0.00 | 0.00 | 0.00 | 63 | 1014.8 |
| 20260901141740 | 84 | 197 | 3.5 | 7.0 | 0.00 | 0.00 | 0.00 | 64 | 1014.8 |
| 20260901141534 | 83 | 201 | 2.6 | 7.0 | 0.00 | 0.00 | 0.00 | 65 | 1012.2 |
| 20260901141224 | 83 | 204 | 3.5 | 7.0 | 0.00 | 0.00 | 0.00 | 65 | 1014.8 |
| 20260901140735 | 83 | 156 | 2.6 | 5.2 | 0.00 | 0.00 | 0.00 | 68 | 1014.8 |
| 20260901140247 | 83 | 171 | 3.5 | 5.2 | 0.00 | 0.00 | 0.00 | 68 | 1014.7 |
| 20260901140035 | 82 | 195 | 1.7 | 5.2 | 0.00 | 0.00 | 0.00 | 67 | 1012.1 |
| 20260901135729 | 82 | 170 | 3.5 | 6.1 | 0.00 | 0.00 | 0.00 | 67 | 1014.7 |
| 20260901135237 | 82 | 174 | 3.5 | 6.1 | 0.00 | 0.00 | 0.00 | 70 | 1014.8 |
| 20260901134748 | 81 | 155 | 4.3 | 6.1 | 0.00 | 0.00 | 0.00 | 70 | 1014.8 |
| 20260901134536 | 81 | 171 | 4.3 | 7.0 | 0.00 | 0.00 | 0.00 | 71 | 1012.2 |
| 20260901134233 | 81 | 162 | 2.6 | 6.1 | 0.00 | 0.00 | 0.00 | 72 | 1014.8 |
| 20260901133742 | 80 | 163 | 3.5 | 6.1 | 0.00 | 0.00 | 0.00 | 72 | 1014.8 |
| 20260901133227 | 80 | 144 | 3.5 | 6.1 | 0.00 | 0.00 | 0.00 | 74 | 1014.8 |
| 20260901133028 | 79 | 165 | 3.5 | 6.1 | 0.00 | 0.00 | 0.00 | 75 | 1012.2 |
| 20260901132742 | 79 | 161 | 3.5 | 6.1 | 0.00 | 0.00 | 0.00 | 75 | 1014.8 |
| 20260901132225 | 79 | 156 | 3.5 | 6.1 | 0.00 | 0.00 | 0.00 | 77 | 1014.8 |
| 20260901131751 | 78 | 154 | 3.5 | 6.1 | 0.00 | 0.00 | 0.00 | 78 | 1014.9 |
| 20260901131510 | 77 | 140 | 2.6 | 6.1 | 0.00 | 0.00 | 0.00 | 79 | 1012.2 |
| 20260901131304 | 77 | 171 | 3.5 | 7.0 | 0.00 | 0.00 | 0.00 | 79 | 1014.8 |
| 20260901130725 | 77 | 155 | 3.5 | 7.0 | 0.00 | 0.00 | 0.00 | 80 | 1014.8 |
| 20260901130237 | 76 | 159 | 4.3 | 7.0 | 0.00 | 0.00 | 0.00 | 81 | 1014.8 |
| 20260901130020 | 76 | 157 | 2.6 | 6.1 | 0.00 | 0.00 | 0.00 | 81 | 1012.2 |
| 20260901125722 | 76 | 164 | 3.5 | 6.1 | 0.00 | 0.00 | 0.00 | 82 | 1014.8 |
| 20260901125236 | 75 | 167 | 3.5 | 6.1 | 0.00 | 0.00 | 0.00 | 82 | 1014.6 |
| 20260901124750 | 75 | 163 | 4.3 | 6.1 | 0.00 | 0.00 | 0.00 | 82 | 1014.7 |
| 20260901124510 | 75 | 138 | 2.6 | 7.0 | 0.00 | 0.00 | 0.00 | 82 | 1012.0 |
| 20260901124239 | 75 | 140 | 3.5 | 7.0 | 0.00 | 0.00 | 0.00 | 82 | 1014.6 |
| 20260901123809 | 75 | 155 | 4.3 | 7.0 | 0.00 | 0.00 | 0.00 | 82 | 1014.5 |
| 20260901123231 | 75 | 155 | 4.3 | 7.0 | 0.00 | 0.00 | 0.00 | 82 | 1014.5 |
| 20260901123101 | 74 | 146 | 2.6 | 6.1 | 0.00 | 0.00 | 0.00 | 82 | 1011.8 |
| 20260901122743 | 75 | 159 | 3.5 | 7.0 | 0.00 | 0.00 | 0.00 | 82 | 1014.3 |
| 20260901122228 | 75 | 159 | 3.5 | 7.8 | 0.00 | 0.00 | 0.00 | 82 | 1014.4 |
| 20260901121801 | 75 | 153 | 5.2 | 7.8 | 0.00 | 0.00 | 0.00 | 82 | 1014.3 |
| 20260901121529 | 74 | 163 | 3.5 | 6.1 | 0.00 | 0.00 | 0.00 | 82 | 1011.7 |
| 20260901121227 | 75 | 175 | 3.5 | 6.1 | 0.00 | 0.00 | 0.00 | 82 | 1014.2 |
| 20260901120811 | 75 | 148 | 2.6 | 6.1 | 0.00 | 0.00 | 0.00 | 82 | 1014.2 |
| 20260901120233 | 75 | 140 | 4.3 | 6.1 | 0.00 | 0.00 | 0.00 | 82 | 1014.2 |
| 20260901120101 | 75 | 157 | 3.5 | 5.2 | 0.00 | 0.00 | 0.00 | 82 | 1011.5 |
| 20260901120002 | 75 | 156 | 2.6 | 4.3 | 0.00 | 0.00 | 0.00 | 82 | 1011.6 |
| 20260901115745 | 75 | 156 | 1.7 | 4.3 | 0.00 | 0.00 | 0.00 | 82 | 1014.2 |
| 20260901115230 | 75 | 156 | 2.6 | 4.3 | 0.00 | 0.00 | 0.00 | 82 | 1014.2 |
| 20260901114742 | 75 | 156 | 1.7 | 4.3 | 0.00 | 0.00 | 0.00 | 81 | 1014.2 |
| 20260901114509 | 75 | 156 | 0.9 | 4.3 | 0.00 | 0.00 | 0.00 | 81 | 1011.5 |
| 20260901114225 | 75 | 157 | 1.7 | 4.3 | 0.00 | 0.00 | 0.00 | 81 | 1014.2 |
| 20260901113729 | 75 | 156 | 2.6 | 4.3 | 0.00 | 0.00 | 0.00 | 81 | 1014.1 |
| 20260901113243 | 76 | 157 | 1.7 | 4.3 | 0.00 | 0.00 | 0.00 | 80 | 1014.2 |
| 20260901113058 | 75 | 156 | 0.9 | 4.3 | 0.00 | 0.00 | 0.00 | 80 | 1011.5 |
| 20260901112725 | 76 | 156 | 0.9 | 5.2 | 0.00 | 0.00 | 0.00 | 80 | 1014.2 |
| 20260901112237 | 76 | 156 | 1.7 | 5.2 | 0.00 | 0.00 | 0.00 | 81 | 1014.2 |
| 20260901111749 | 76 | 157 | 2.6 | 6.1 | 0.00 | 0.00 | 0.00 | 81 | 1014.2 |
| 20260901111600 | 75 | 156 | 1.7 | 7.0 | 0.00 | 0.00 | 0.00 | 81 | 1011.5 |
| 20260901111502 | 75 | 157 | 1.7 | 7.0 | 0.00 | 0.00 | 0.00 | 81 | 1011.5 |
| 20260901111234 | 76 | 157 | 2.6 | 7.0 | 0.00 | 0.00 | 0.00 | 81 | 1014.2 |
| 20260901110745 | 76 | 159 | 4.3 | 7.0 | 0.00 | 0.00 | 0.00 | 80 | 1014.2 |
| 20260901110229 | 76 | 198 | 4.3 | 6.1 | 0.00 | 0.00 | 0.00 | 80 | 1014.2 |
| 20260901110013 | 75 | 161 | 3.5 | 7.0 | 0.00 | 0.00 | 0.00 | 80 | 1011.5 |
| 20260901105740 | 76 | 163 | 3.5 | 7.0 | 0.00 | 0.00 | 0.00 | 80 | 1014.2 |
| 20260901105223 | 76 | 162 | 4.3 | 7.0 | 0.00 | 0.00 | 0.00 | 81 | 1014.2 |
| 20260901104732 | 76 | 197 | 3.5 | 6.1 | 0.00 | 0.00 | 0.00 | 82 | 1014.1 |
| 20260901104518 | 76 | 159 | 2.6 | 5.2 | 0.00 | 0.00 | 0.00 | 82 | 1011.5 |
| 20260901104305 | 76 | 160 | 2.6 | 4.3 | 0.00 | 0.00 | 0.00 | 82 | 1014.3 |
| 20260901103726 | 77 | 155 | 2.6 | 4.3 | 0.00 | 0.00 | 0.00 | 82 | 1014.2 |
| 20260901103240 | 77 | 155 | 1.7 | 4.3 | 0.00 | 0.00 | 0.00 | 82 | 1014.3 |
| 20260901103049 | 76 | 155 | 1.7 | 4.3 | 0.00 | 0.00 | 0.00 | 82 | 1011.7 |
| 20260901102724 | 77 | 155 | 2.6 | 4.3 | 0.00 | 0.00 | 0.00 | 82 | 1014.3 |
| 20260901102236 | 77 | 155 | 1.7 | 2.6 | 0.00 | 0.00 | 0.00 | 82 | 1014.3 |
| 20260901101747 | 77 | 155 | 2.6 | 2.6 | 0.00 | 0.00 | 0.00 | 82 | 1014.4 |
| 20260901101553 | 76 | 155 | 0.9 | 2.6 | 0.00 | 0.00 | 0.00 | 82 | 1011.7 |
| 20260901101231 | 77 | 155 | 0.9 | 2.6 | 0.00 | 0.00 | 0.00 | 82 | 1014.4 |
| 20260901100743 | 77 | 155 | 1.7 | 4.3 | 0.00 | 0.00 | 0.00 | 82 | 1014.5 |
| 20260901100225 | 77 | 155 | 1.7 | 2.6 | 0.00 | 0.00 | 0.00 | 81 | 1014.4 |
| 20260901100105 | 77 | 155 | 0.9 | 2.6 | 0.00 | 0.00 | 0.00 | 81 | 1011.8 |
| 20260901095736 | 77 | 155 | 1.7 | 4.3 | 0.00 | 0.00 | 0.00 | 81 | 1014.5 |
| 20260901095247 | 77 | 155 | 1.7 | 5.2 | 0.00 | 0.00 | 0.00 | 82 | 1014.5 |
| 20260901094732 | 77 | 155 | 2.6 | 7.0 | 0.00 | 0.00 | 0.00 | 82 | 1014.5 |
| 20260901094509 | 77 | 155 | 2.6 | 7.0 | 0.00 | 0.00 | 0.00 | 82 | 1011.9 |
| 20260901094246 | 77 | 154 | 3.5 | 7.0 | 0.00 | 0.00 | 0.00 | 82 | 1014.5 |
| 20260901093726 | 77 | 159 | 4.3 | 6.1 | 0.00 | 0.00 | 0.00 | 82 | 1014.5 |
| 20260901093237 | 77 | 155 | 2.6 | 3.5 | 0.00 | 0.00 | 0.00 | 83 | 1014.5 |
| 20260901093017 | 77 | 142 | 1.7 | 3.5 | 0.00 | 0.00 | 0.00 | 83 | 1011.8 |
| 20260901092750 | 77 | 142 | 1.7 | 3.5 | 0.00 | 0.00 | 0.00 | 83 | 1014.5 |
| 20260901092243 | 77 | 142 | 2.6 | 4.3 | 0.00 | 0.00 | 0.00 | 84 | 1014.5 |
| 20260901091725 | 77 | 142 | 3.5 | 4.3 | 0.00 | 0.00 | 0.00 | 84 | 1014.5 |
| 20260901091507 | 77 | 142 | 1.7 | 4.3 | 0.00 | 0.00 | 0.00 | 84 | 1011.9 |
| 20260901091239 | 77 | 129 | 2.6 | 4.3 | 0.00 | 0.00 | 0.00 | 84 | 1014.6 |
| 20260901090751 | 77 | 129 | 2.6 | 4.3 | 0.00 | 0.00 | 0.00 | 84 | 1014.6 |
| 20260901090257 | 77 | 129 | 2.6 | 4.3 | 0.00 | 0.00 | 0.00 | 84 | 1014.6 |
| 20260901090040 | 77 | 142 | 2.6 | 3.5 | 0.00 | 0.00 | 0.00 | 84 | 1011.9 |
| 20260901085747 | 77 | 128 | 2.6 | 3.5 | 0.00 | 0.00 | 0.00 | 84 | 1014.6 |
| 20260901085232 | 77 | 128 | 2.6 | 3.5 | 0.00 | 0.00 | 0.00 | 85 | 1014.5 |
| 20260901084744 | 77 | 128 | 2.6 | 3.5 | 0.00 | 0.00 | 0.00 | 85 | 1014.5 |
| 20260901084527 | 77 | 128 | 1.7 | 5.2 | 0.00 | 0.00 | 0.00 | 85 | 1011.8 |